Content
SEND FEEDBACK

Daily
Averages
Monthly
Summary
United States of America

WINAMAC, INDIANA


Home > North America > United States > Indiana
Elevation: 699 feet     Latitude: 41 02N     Longitude: 086 35W

WEATHER
 
SELECT A DAY
Number of Records: 278,955;   Date Range: 5/28/03 - 11/22/14
 
SHARE

PRINT THIS DATA

[ ← Previous Day ]
WEATHER ALMANAC - JANUARY 23, 2013
[ Next Day → ]
[ °C ]   °F
Weather ElementAverageHighLow
Temperature14.7 °F19.4 °F (3:15 pm)8.6 °F (12:35 am)
Dewpoint4 °F15.8 °F (11:55 pm)-2.2 °F (12:35 am)
Humidity63.5 %86 % (10:55 pm)45 % (12:35 pm)
Barometer30.20 in30.30 in (12:35 am)30.08 in (7:15 pm)
Wind Speed9.6 mph17.3 mph (9:35 pm)
Wind Gust23 mph (10:15 pm)
Weather ElementAverage
Visibility8.9 mi
Wind DirectionWSW (250.6 °)

Weather ElementTotal
Precipitation---
Heating Degree Days51 (Base 65)
Averaged from 67 records on January 23, 2013
WEATHER CONDITIONS BREAKOUT
WIND DIRECTION BREAKOUT
WEATHER BY HOUR - JANUARY 23, 2013
[ °C ]   °F
Local TimeTemperatureDewpointHumidityBarometerVisibilityWind DirectionWind SpeedGust SpeedPrecipitationEventsConditions
12:35 AM8.6 °F-2.2 °F62 %30.30 in10.0 miWSW (250°)9.2 mphClear
12:55 AM8.6 °F-2.2 °F62 %30.30 in10.0 miWSW (250°)10.4 mphClear
1:15 AM8.6 °F-2.2 °F62 %30.30 in10.0 miWest (260°)9.2 mphClear
1:35 AM8.6 °F-2.2 °F62 %30.30 in10.0 miWest (260°)10.4 mph17.3 mphClear
1:55 AM8.6 °F-0.4 °F67 %30.30 in10.0 miWest (260°)10.4 mphClear
2:15 AM8.6 °F-0.4 °F67 %30.29 in10.0 miWSW (250°)10.4 mphClear
2:35 AM8.6 °F-0.4 °F67 %30.29 in10.0 miWSW (250°)10.4 mphClear
2:55 AM8.6 °F-0.4 °F67 %30.29 in10.0 miWSW (240°)8.1 mphClear
3:15 AM8.6 °F-0.4 °F67 %30.29 in10.0 miWSW (240°)8.1 mphClear
3:35 AM8.6 °F-0.4 °F67 %30.29 in10.0 miWSW (240°)8.1 mphClear
3:55 AM8.6 °F-0.4 °F67 %30.29 in10.0 miWSW (250°)8.1 mphClear
4:15 AM8.6 °F1.4 °F73 %30.29 in10.0 miWSW (250°)6.9 mphMostly Cloudy
4:35 AM10.4 °F-0.4 °F62 %30.28 in10.0 miWSW (250°)10.4 mphOvercast
4:55 AM10.4 °F-0.4 °F62 %30.28 in10.0 miWSW (250°)9.2 mphOvercast
5:15 AM10.4 °F-0.4 °F62 %30.28 in10.0 miWSW (250°)11.5 mph16.1 mphOvercast
5:35 AM10.4 °F-0.4 °F62 %30.27 in10.0 miWSW (250°)10.4 mphOvercast
5:55 AM10.4 °F-0.4 °F62 %30.28 in10.0 miWSW (250°)11.5 mphOvercast
6:15 AM10.4 °F-0.4 °F62 %30.27 in10.0 miWSW (250°)11.5 mphOvercast
6:35 AM10.4 °F-0.4 °F62 %30.27 in10.0 miWSW (250°)10.4 mphOvercast
6:55 AM10.4 °F-0.4 °F62 %30.27 in10.0 miWSW (250°)8.1 mphOvercast
7:15 AM12.2 °F-0.4 °F57 %30.27 in10.0 miWest (260°)8.1 mphOvercast
7:35 AM12.2 °F-0.4 °F57 %30.27 in10.0 miWest (260°)8.1 mphOvercast
7:55 AM12.2 °F-0.4 °F57 %30.27 in10.0 miWSW (250°)9.2 mphOvercast
8:15 AM12.2 °F-0.4 °F57 %30.27 in10.0 miWest (260°)6.9 mphOvercast
8:35 AM12.2 °F-0.4 °F57 %30.27 in10.0 miWSW (240°)6.9 mphOvercast
8:55 AM12.2 °F-0.4 °F57 %30.25 in10.0 miSW (230°)4.6 mphOvercast
9:15 AM12.2 °F-0.4 °F57 %30.27 in10.0 miWSW (240°)6.9 mphOvercast
9:35 AM14.0 °F-0.4 °F53 %30.26 in10.0 miWSW (240°)9.2 mphOvercast
9:55 AM14.0 °F1.4 °F57 %30.26 in10.0 miWSW (240°)5.8 mphOvercast
10:15 AM14.0 °F-0.4 °F53 %30.26 in10.0 miWSW (240°)10.4 mph17.3 mphOvercast
10:35 AM14.0 °F1.4 °F57 %30.25 in10.0 miSW (230°)8.1 mphOvercast
10:55 AM14.0 °F1.4 °F57 %30.25 in10.0 miSW (230°)8.1 mphOvercast
11:15 AM15.8 °F-0.4 °F49 %30.25 in10.0 miSW (230°)10.4 mphMostly Cloudy
11:35 AM15.8 °F1.4 °F53 %30.25 in10.0 miSW (230°)9.2 mphOvercast
11:55 AM17.6 °F1.4 °F49 %30.24 in10.0 miWest (260°)12.7 mphOvercast
12:15 PM15.8 °F1.4 °F53 %30.23 in10.0 miSW (230°)8.1 mphOvercast
12:35 PM17.6 °F-0.4 °F45 %30.22 in10.0 miWSW (250°)10.4 mphOvercast
12:55 PM17.6 °F1.4 °F49 %30.21 in10.0 miWSW (240°)9.2 mph16.1 mphOvercast
1:15 PM17.6 °F1.4 °F49 %30.19 in10.0 miWSW (240°)10.4 mphOvercast
1:35 PM17.6 °F-0.4 °F45 %30.17 in10.0 miWSW (250°)8.1 mphOvercast
1:55 PM17.6 °F1.4 °F49 %30.16 in10.0 miSW (230°)8.1 mphOvercast
2:15 PM17.6 °F1.4 °F49 %30.15 in10.0 miWSW (250°)12.7 mph16.1 mphOvercast
2:35 PM17.6 °F3.2 °F53 %30.15 in10.0 miWSW (240°)8.1 mphOvercast
3:15 PM19.4 °F5.0 °F54 %30.13 in10.0 miWSW (240°)9.2 mphOvercast
3:35 PM19.4 °F6.8 °F58 %30.12 in10.0 miWSW (240°)8.1 mphOvercast
4:35 PM19.4 °F8.6 °F63 %30.11 in7.0 miWSW (240°)9.2 mphOvercast
4:55 PM19.4 °F8.6 °F63 %30.11 in7.0 miWSW (250°)8.1 mphOvercast
5:15 PM19.4 °F10.4 °F68 %30.11 in5.0 miWSW (250°)12.7 mphSnowLight Snow
5:35 PM19.4 °F10.4 °F68 %30.11 in3.0 miWSW (240°)9.2 mphSnowLight Snow
5:55 PM17.6 °F12.2 °F79 %30.09 in3.0 miSW (230°)4.6 mphSnowLight Snow
6:15 PM17.6 °F12.2 °F79 %30.09 in7.0 miWSW (240°)6.9 mphSnowLight Snow
6:35 PM19.4 °F10.4 °F68 %30.09 in10.0 miWSW (240°)5.8 mphOvercast
6:55 PM19.4 °F8.6 °F63 %30.09 in10.0 miWSW (240°)8.1 mphOvercast
7:15 PM19.4 °F10.4 °F68 %30.08 in10.0 miWSW (240°)8.1 mphOvercast
7:35 PM19.4 °F12.2 °F74 %30.09 in7.0 miWSW (240°)9.2 mph16.1 mphSnowLight Snow
7:55 PM17.6 °F12.2 °F79 %30.08 in5.0 miWSW (250°)8.1 mphSnowLight Snow
8:15 PM17.6 °F12.2 °F79 %30.08 in10.0 miWSW (250°)6.9 mphOvercast
8:35 PM17.6 °F12.2 °F79 %30.09 in10.0 miWest (260°)8.1 mphSnowLight Snow
8:55 PM19.4 °F12.2 °F74 %30.08 in7.0 miWest (260°)10.4 mphSnowLight Snow
9:15 PM19.4 °F12.2 °F74 %30.09 in7.0 miWest (270°)12.7 mphSnowLight Snow
9:35 PM19.4 °F12.2 °F74 %30.09 in7.0 miWest (280°)17.3 mphOvercast
9:55 PM19.4 °F12.2 °F74 %30.10 in7.0 miWest (270°)16.1 mph21.9 mphSnowLight Snow
10:15 PM19.4 °F12.2 °F74 %30.10 in5.0 miWest (280°)17.3 mph23.0 mphSnowLight Snow
10:35 PM19.4 °F14.0 °F80 %30.10 in4.0 miWNW (290°)16.1 mph19.6 mphSnowLight Snow
10:55 PM17.6 °F14.0 °F86 %30.10 in4.0 miWNW (290°)15.0 mphSnowLight Snow
11:15 PM17.6 °F14.0 °F86 %30.11 in10.0 miWNW (300°)11.5 mphScattered Clouds
11:55 PM19.4 °F15.8 °F86 %30.13 in1.2 miNNW (330°)12.7 mph18.4 mphSnowSnow
Hourly data recorded from KRCR, located miles away from Winamac, Indiana







STORIES FROM OUR PARTNERS